Simultaneous Nadir Overpasses (SNOs) Predictions

Prediction of SNOs between METOP-A and NOAA-19 Satellite Orbit:

Table of predicted SNOs for the next 14.0 days since TLE Epoch: 10/17/2015
Index Date (METOP-A) Time (METOP-A) Lat,Lon (METOP-A) SZA (METOP-A ) Date (NOAA-19) Time (NOAA-19) Lat,Lon (NOAA-19) SZA (NOAA-19 ) Distance(km) Time Diff (sec)
1 10/20/2015 14:37:00 75.45, -41.35 85.73 10/20/2015 14:35:56 75.48, -41.34 85.77 3.54 64
2 10/20/2015 15:27:41 -75.47, 126.05 94.23 10/20/2015 15:26:51 -75.48, 125.94 94.23 3.20 50
3 10/20/2015 16:18:22 75.42, -66.76 85.74 10/20/2015 16:17:57 75.41, -66.64 85.72 3.72 25
4 10/20/2015 17:09:03 -75.45, 100.64 94.23 10/20/2015 17:08:52 -75.41, 100.64 94.27 4.04 11
5 10/20/2015 17:59:44 75.40, -92.18 85.74 10/20/2015 17:59:59 75.39, -92.08 85.73 2.86 15
6 10/20/2015 18:50:25 -75.42, 75.22 94.23 10/20/2015 18:50:54 -75.39, 75.20 94.27 3.69 29
7 10/20/2015 19:41:06 75.37,-117.59 85.74 10/20/2015 19:42:01 75.37,-117.52 85.73 2.00 55
8 10/20/2015 20:31:48 -75.35, 49.67 94.28 10/20/2015 20:32:56 -75.37, 49.76 94.26 3.28 68
9 10/31/2015 02:19:09 75.77, 144.09 89.67 10/31/2015 02:17:59 75.78, 142.36 89.66 47.20 70
10 10/31/2015 03:09:57 -75.48, -49.50 90.63 10/31/2015 03:08:48 -75.48, -49.37 90.63 3.64 69
11 10/31/2015 04:00:37 75.46, 117.78 89.37 10/31/2015 03:59:55 75.49, 117.83 89.40 3.13 42
12 10/31/2015 04:51:19 -75.45, -74.91 90.63 10/31/2015 04:50:50 -75.46, -74.81 90.62 2.90 29
13 10/31/2015 05:41:59 75.44, 92.37
